This demonstration page uses our WeatherBlox Daily Observations layout. Learn more.

Left ArrowRight Arrow

Hourly Observations for December 23, 2020

Temp ( °F °C ) Dew Point ( °F °C ) Humidity (%) Winds ( mph kmh ) Pressure ( in mb ) Visibility ( mi km ) Precip ( " mm )
12:54 am 00:54 Clear 54 12.2 41 5 62 62 S 18 30 29.34 994 10 16.0934 0 0
1:54 am 01:54 Clear 53 11.7 42 5.6 66 66 S 18 30 29.32 993 10 16.0934 0 0
2:54 am 02:54 Clear 50 10 42 5.6 74 74 SSW 12 19 29.3 992 10 16.0934 0 0
3:54 am 03:54 Mostly Clear 48 8.9 41 5 77 77 SW 6 9 29.29 992 10 16.0934 0 0
4:15 am 04:15 Mostly Cloudy 48 8.9 40 4.4 74 74 NW 21 33 29.34 993 10 16.0934 0 0
4:54 am 04:54 Cloudy 45 7.2 31 -0.6 58 58 NW 23 37 29.36 994 10 16.0934 0 0
5:54 am 05:54 Cloudy 43 6.1 31 -0.6 63 63 WNW 21 33 29.42 996 10 16.0934 0 0
6:37 am 06:37 Cloudy 41 5 30 -1.1 65 65 WNW 24 39 29.49 999 10 16.0934 0 0
6:54 am 06:54 Cloudy 40 4.4 30 -1.1 68 68 NW 28 44 29.46 998 10 16.0934 0 0
7:43 am 07:43 Windy with Snow Likely 36 2.2 30 -1.1 79 79 WNW 22 35 29.58 1002 9 14.48406 0.001 0.001
7:54 am 07:54 Windy with Snow Likely 34 1.1 29 -1.7 82 82 WNW 29 46 29.55 1001 3 4.82802 0.001 0.001
8:18 am 08:18 Windy with Snow Likely 32 0 26 -3.3 79 79 WNW 23 37 29.65 1004 8 12.87472 0.001 0.001
8:54 am 08:54 Cloudy 30 -1.1 21 -6.1 69 69 NW 32 52 29.61 1003 10 16.0934 0.001 0.001
9:32 am 09:32 Cloudy with Light Wintry Mix 28 -2.2 16 -8.9 60 60 NW 30 48 29.72 1006 9 14.48406 0.001 0.001
9:54 am 09:54 Windy with Snow Likely 27 -2.8 18 -7.8 69 69 WNW 26 43 29.69 1006 4 6.43736 0.001 0.001
10:05 am 10:05 Cloudy 26 -3.3 15 -9.4 63 63 NW 24 39 29.76 1008 9 14.48406 0.001 0.001
10:36 am 10:36 Windy with Snow Likely 25 -3.9 15 -9.4 66 66 NW 33 54 29.78 1008 2 3.21868 0.001 0.001
10:54 am 10:54 Windy with Snow Likely 25 -3.9 15 -9.4 66 66 NW 21 33 29.72 1007 2.5 4.02335 0.001 0.001
11:08 am 11:08 Windy with Snow Likely 24 -4.4 17 -8.3 75 75 NW 24 39 29.8 1009 0.75 1.207005 0.001 0.001
11:15 am 11:15 Cloudy with Heavy Snow 24 -4.4 18 -7.8 77 77 WNW 26 43 29.8 1009 0.25 0.402335 0.001 0.001
11:19 am 11:19 Cloudy with Snow 24 -4.4 17 -8.3 75 75 NW 25 41 29.8 1009 0.5 0.80467 0.001 0.001
11:29 am 11:29 Windy with Snow Likely 24 -4.4 16 -8.9 71 71 NW 29 46 29.81 1010 1.75 2.816345 0.001 0.001
11:33 am 11:33 Windy with Snow Likely 24 -4.4 15 -9.4 68 68 NW 24 39 29.81 1010 3 4.82802 0.001 0.001
11:42 am 11:42 Windy with Snow Likely 23 -5 16 -8.9 74 74 NW 22 35 29.82 1010 1.75 2.816345 0.001 0.001
11:48 am 11:48 Windy with Snow Likely 23 -5 18 -8 80 80 WNW 22 35 29.82 1010 0.75 1.207005 0.001 0.001
11:54 am 11:54 Windy with Snow Likely 23 -5 16 -8.9 74 74 WNW 32 52 29.77 1008 0.75 1.207005 0.001 0.001
12:03 pm 12:03 Windy with Snow Likely 23 -5 14 -10 68 68 NW 31 50 29.83 1010 0.75 1.207005 0.001 0.001
12:10 pm 12:10 Windy with Snow Likely 23 -5 14 -10 68 68 NW 29 46 29.84 1011 1.5 2.41401 0.001 0.001
12:26 pm 12:26 Windy with Snow Likely 24 -4.4 16 -8.9 71 71 NW 26 43 29.84 1011 0.75 1.207005 0.001 0.001
12:38 pm 12:38 Mostly Cloudy with Snow 23 -5 17 -8.3 78 78 WNW 23 37 29.84 1011 0.5 0.80467 0.001 0.001
12:43 pm 12:43 Mostly Cloudy with Heavy Snow 23 -5 16 -8.9 74 74 NW 31 50 29.84 1011 0.25 0.402335 0.001 0.001
12:50 pm 12:50 Cloudy with Snow 23 -5 16 -9 74 74 NW 26 43 29.84 1011 0.5 0.80467 0.001 0.001
12:54 pm 12:54 Windy with Snow Likely 23 -5 16 -8.9 74 74 NW 31 50 29.78 1009 0.75 1.207005 0.001 0.001
1:04 pm 13:04 Mostly Cloudy with Light Snow 22 -5.6 16 -8.9 78 78 NW 22 35 29.86 1011 1 1.60934 0.001 0.001
1:17 pm 13:17 Mostly Cloudy with Snow 22 -5.6 16 -8.9 78 78 NW 29 46 29.86 1011 0.5 0.80467 0.001 0.001
1:32 pm 13:32 Mostly Cloudy with Heavy Snow 22 -5.6 17 -8.3 82 82 NW 24 39 29.87 1011 0.25 0.402335 0.001 0.001
1:54 pm 13:54 Mostly Cloudy with Heavy Snow 22 -5.6 17 -8.3 82 82 NW 26 43 29.81 1010 0.25 0.402335 0.001 0.001
2:54 pm 14:54 Mostly Cloudy with Snow 22 -5.6 18 -7.8 85 85 NNW 23 37 29.85 1011 0.25 0.402335 0.001 0.001
3:54 pm 15:54 Mostly Cloudy with Heavy Snow 21 -6.1 16 -8.9 81 81 NW 23 37 29.91 1013 0.25 0.402335 0.02 0.508
3:59 pm 15:59 Mostly Cloudy with Snow 21 -6.1 16 -8.9 81 81 NW 28 44 29.97 1015 0.5 0.80467 0.001 0.001
4:14 pm 16:14 Mostly Cloudy with Heavy Snow 21 -6.1 14 -10 74 74 NW 35 56 29.99 1016 0.25 0.402335 0.001 0.001
4:22 pm 16:22 Cloudy with Snow 20 -6.7 13 -10.6 74 74 NW 29 46 30 1016 0.5 0.80467 0.001 0.001
4:33 pm 16:33 Windy with Snow Likely 20 -6.7 13 -10.6 74 74 NW 32 52 30 1016 0.75 1.207005 0.001 0.001
4:42 pm 16:42 Cloudy with Blowing Snow 21 -6.1 12 -11.1 68 68 NW 31 50 30.01 1016 1 1.60934 0.001 0.001
4:54 pm 16:54 Cloudy with Blowing Snow 21 -6.1 12 -11.1 68 68 NW 35 56 29.97 1015 1 1.60934 0.001 0.001
5:05 pm 17:05 Cloudy with Blowing Snow 21 -6.1 12 -11.1 68 68 NW 28 44 30.02 1017 4 6.43736 0 0
5:54 pm 17:54 Mostly Cloudy with Blowing Snow 20 -6.7 11 -11.7 68 68 NW 36 57 30 1016 4 6.43736 0.001 0.001
6:54 pm 18:54 Windy with Snow Likely 20 -6.7 10 -12.2 65 65 NW 32 52 30.04 1017 4 6.43736 0.001 0.001
7:54 pm 19:54 Clear with Blowing Snow 20 -6.7 9 -12.8 62 62 NW 24 39 30.09 1019 4 6.43736 0.001 0.001
8:21 pm 20:21 Mostly Cloudy with Light Snow 21 -6.1 10 -12.2 62 62 NW 23 37 30.15 1021 10 16.0934 0.001 0.001
8:54 pm 20:54 Windy with Snow Likely 21 -6.1 10 -12.2 62 62 NW 28 44 30.11 1020 5 8.0467 0.001 0.001
9:54 pm 21:54 Windy with Snow Likely 20 -6.7 10 -12.2 65 65 NNW 24 39 30.12 1020 9 14.48406 0.001 0.001
10:54 pm 22:54 Cloudy 20 -6.7 9 -12.8 62 62 NW 17 28 30.14 1021 10 16.0934 0.001 0.001
11:18 pm 23:18 Partly Cloudy 19 -7.2 9 -12.8 65 65 WNW 12 19 30.18 1022 10 16.0934 0 0
11:54 pm 23:54 Mostly Cloudy 18 -7.8 8 -13.3 65 65 NW 13 20 30.13 1020 10 16.0934 0 0

Powered by AerisWeather